STARLINK-35599, 66102

Orbit data source: Space-Track

STARLINK-35599, 66102 is a payload satellite owned by SpaceX/Seattle (US) in LEO that was launched on Sun, 19 Oct 2025 UTC via an FALCON 9 launch vehicle from the Air Force Western Test Range (AFWTR). Payload-class satellites include a variety of spacecraft equipped with specific instruments for various scientific and technological missions. These include communications satellites like Starlink; space stations such as the ISS; scientific satellites like the Hubble; Earth observation satellites from companies like Planet Labs, Umbra, and HawkEye 360; GPS; miniature CubeSats for education and research; and military/defense satellites.

Loading next visibility...
Identifier
66102, 2025-236S
Orbit
LEO
Country
Flag of USUS
Related business
Manufacturer
SpaceX/Seattle
Mission
Operational Commercial Communications
Bus & Motor
STARLINK V2MO, Unknown motor
Mass
575 kg wet, ~530 kg dry
Launch date (UTC)
2025-10-19 (6 months ago)
Launch vehicle
FALCON 9
Launch site
Air Force Western Test Range (AFWTR)
Object type
Payload
Rocket body
Debris
Shape & HBR
Box + 2 Pan, 17.7 m
Radar Cross Section
36.964 m²

Expand to show TLE details & history
Last TLE update: 14 hours ago

TLE from 14 hours ago
0 STARLINK-35599
1 66102U 25236S   26095.08596840  .00013243  00000-0  45963-3 0  9998
2 66102  53.1607 341.4287 0000230  64.0132 296.0893 15.30115561 26923
Epoch: 2026-04-05T02:03Z
TLE epoch observation values (Epoch: 2026-04-05T02:03:47.669Z)
Latitude
0.00001°
Longitude
117.08364°
Altitude
476.298 km
Speed
7.629 km/s
True Right ascension
22h 45m 42s
True Declination
0° 00' 00"
Sunlit
Object was in daylight at epoch
Visualization orbit readout
Latitude
Unknown
Longitude
Unknown
Altitude
Unknown
Speed
Unknown
Apparent Right ascension
Unknown
Apparent Declination
Unknown
Sunlit
N/A
Visualization observer readout
Local Sidereal Time
21:54:14
Azimuth
Unknown
Elevation
Unknown
Doppler factor
Unknown
Orbital elements
Apogee altitude
475.881 km
Perigee altitude
475.566 km
Semi-major axis
6,853.861 km
Eccentricity
0.00002
Inclination
53.1607°
RAAN
341.4287°
Arg. of periapsis
64.0132°
True anomaly
296.08693°
Mean anomaly
296.0893°
Eccentric anomaly
296.08812°
Mean motion
3.82508 °/min
Orbital period
94.12 mins
BSTAR
0.00045963
Loading maneuver chart data...
Computing Atmospheric mass density...
Loading historical data...
Loading historical data...
Loading historical data...
Loading historical data...
Loading historical data...
Loading historical data...
Loading historical data...

Documentation

Showing up to 5 results
|